www.pogodaiklimat.ru

Погода и климат >> Архив погоды >> Австралия >> Новый Южный Уэльс >> Нора Хед


ПОГОДА в Нора Хед

  • Прогноз погоды в Нора Хед
  • Монитор погоды в Нора Хед

АРХИВ ПОГОДЫ в Нора Хед

Время (UTC), дата Ветер
(напр.,м/с)
 
Видим.   Явления Облачность Т
(С)
Тd
(С)
f
(%)
Тe
(С)
Тes
(С)
Комфортность P
(гПа)
Po
(гПа)
Тmin
(С)
Tmax
(С)
R
(мм)
R24
(мм)
S
(см)
01 16.04 Ю 6 н/о н/о +20.9 +18.5 86 +25 +25 комфорт 1024.8 1022.5
02 16.04 ЮЗ 3 н/о туман местами н/о +17.8 +17.6 99 +18 +18 1024.5 1022.2 +16.2
04 16.04 Ю 4 н/о н/о +19.8 +17.8 88 +22 +22 комфорт 1023.3 1021.0
05 16.04 ЮВ 8 н/о туман местами н/о +18.6 +16.0 85 +19 +19 1023.4 1021.1
07 16.04 ЮВ 5 н/о н/о +19.9 +18.2 90 +23 +23 комфорт 1023.5 1021.2
08 16.04 Ю 5 н/о {туман} н/о +19.6 +17.2 86 +22 +22 комфорт 1024.0 1021.7
10 16.04 ЮВ 5 н/о н/о +20.1 +17.9 87 +23 +23 комфорт 1024.8 1022.5
11 16.04 ЮВ 4 н/о {туман} н/о +20.1 +17.5 85 +23 +23 комфорт 1025.1 1022.8
13 16.04 ЮВ 2 н/о н/о +19.5 +17.5 88 +22 +22 комфорт 1024.7 1022.4
14 16.04 ЮЗ 2 н/о н/о +18.1 +16.8 92 +19 +19 1024.5 1022.2 +22.3
16 16.04 ЮЗ 3 н/о н/о +17.6 +17.1 97 +18 +18 1024.0 1021.7
17 16.04 ЮЗ 3 н/о н/о +18.2 +17.6 96 +19 +19 1023.5 1021.2
19 16.04 ЮЗ 3 н/о н/о +18.1 +18.1 100 +18 +18 1023.9 1021.6
20 16.04 ЮЗ 4 н/о {туман} н/о +16.9 +16.9 100 +16 +16 1024.3 1022.0
22 16.04 ЮЗ 3 н/о н/о +18.6 +18.4 99 +20 +20 1025.4 1023.1
23 16.04 ЮЗ 2 н/о {туман} н/о +19.4 +18.4 94 +22 +22 комфорт 1025.6 1023.3
01 17.04 Ю 4 н/о н/о +22.0 +19.2 84 +27 +27 душно 1025.3 1023.0
02 17.04 Ю 3 н/о н/о +22.6 +19.4 82 +29 +29 очень
душно
1024.8 1022.5 +17.0
04 17.04 Ю 4 н/о н/о +23.5 +18.8 75 +28 +28 душно 1023.7 1021.4
05 17.04 Ю 4 н/о н/о +23.3 +18.2 73 +29 +29 душно 1023.6 1021.3
07 17.04 ЮВ 3 н/о н/о +20.8 +17.6 82 +25 +25 комфорт 1023.6 1021.3
08 17.04 В 3 н/о н/о +20.4 +17.6 84 +24 +24 комфорт 1023.7 1021.4
10 17.04 СВ 5 н/о н/о +20.0 +18.0 88 +23 +23 комфорт 1024.6 1022.3
11 17.04 СВ 4 н/о н/о +19.9 +17.5 86 +23 +23 комфорт 1025.1 1022.8
13 17.04 СЗ 2 н/о н/о +19.3 +16.9 86 +22 +22 комфорт 1025.0 1022.7
14 17.04 СЗ 2 н/о н/о +18.9 +17.0 89 +21 +21 комфорт 1024.6 1022.3 +24.1
16 17.04 З 4 н/о н/о +18.1 +16.4 90 +18 +18 1024.0 1021.7
17 17.04 З 2 н/о н/о +18.9 +16.3 85 +21 +21 комфорт 1023.2 1020.9
19 17.04 З 2 н/о н/о +18.6 +16.2 86 +20 +20 1023.4 1021.1
20 17.04 З 5 н/о н/о +17.3 +16.0 92 +17 +17 1024.0 1021.7
22 17.04 З 4 н/о н/о +18.9 +16.5 86 +20 +20 1025.4 1023.1
23 17.04 З 2 н/о н/о +21.3 +17.7 80 +25 +25 комфорт 1025.5 1023.2
01 18.04 В 1 н/о н/о +24.5 +18.4 69 +29 +29 душно 1025.3 1023.0
02 18.04 В 3 н/о н/о +24.3 +18.7 71 +29 +29 душно 1024.7 1022.4 +17.0
04 18.04 В 4 н/о н/о +23.3 +18.0 72 +29 +29 душно 1023.9 1021.6
05 18.04 В 4 н/о н/о +22.8 +17.7 73 +28 +28 душно 1023.8 1021.5
07 18.04 В 4 н/о н/о +21.8 +19.0 84 +27 +27 душно 1024.2 1021.9
08 18.04 В 4 н/о н/о +21.4 +19.3 88 +26 +26 душно 1024.6 1022.3
10 18.04 СВ 3 н/о н/о +20.2 +19.0 93 +24 +24 комфорт 1026.0 1023.7
11 18.04 СВ 2 н/о н/о +20.2 +19.4 95 +25 +25 комфорт 1026.6 1024.3
13 18.04 ЮЗ 3 н/о н/о +20.2 +19.7 97 +24 +24 комфорт 1027.5 1025.2
14 18.04 ЮЗ 3 н/о н/о +20.6 +20.3 98 +26 +26 душно 1027.4 1025.1 +25.4
16 18.04 Ю 8 н/о н/о +20.8 +20.1 96 +25 +25 комфорт 1026.6 1024.3
17 18.04 Ю 7 н/о {осадки} н/о +20.8 +19.3 91 +25 +25 комфорт 1026.1 1023.8 0.4
19 18.04 Ю 6 н/о н/о +20.5 +19.7 95 +24 +24 комфорт 1026.5 1024.2
20 18.04 Ю 6 н/о н/о +20.4 +19.4 94 +24 +24 комфорт 1027.0 1024.7
22 18.04 ЮЗ 3 н/о н/о +20.0 +19.0 94 +24 +24 комфорт 1028.5 1026.2
23 18.04 ЮЗ 3 н/о н/о +20.6 +19.4 93 +25 +25 комфорт 1028.9 1026.6
01 19.04 Ю 6 н/о н/о +21.5 +19.2 87 +26 +26 душно 1028.4 1026.1
02 19.04 Ю 6 н/о н/о +22.2 +19.2 83 +28 +28 душно 1027.7 1025.4 +19.7
04 19.04 Ю 6 н/о н/о +22.5 +19.3 82 +28 +28 душно 1026.0 1023.7
05 19.04 Ю 5 н/о н/о +22.4 +19.2 82 +28 +28 душно 1025.8 1023.5
07 19.04 Ю 4 н/о н/о +20.8 +18.9 89 +25 +25 комфорт 1025.8 1023.5
08 19.04 ЮВ 4 н/о н/о +20.4 +19.1 92 +24 +24 комфорт 1026.0 1023.7
10 19.04 ЮВ 2 н/о н/о +20.3 +19.0 92 +25 +25 комфорт 1026.6 1024.3
11 19.04 ЮВ 1 н/о н/о +20.3 +18.8 91 +25 +25 комфорт 1026.8 1024.5
13 19.04 штиль 0 н/о н/о +19.8 +19.0 95 +23 +23 комфорт 1026.6 1024.3
14 19.04 З 2 н/о н/о +19.2 +19.0 99 +22 +22 комфорт 1026.3 1024.0 +22.8
16 19.04 З 1 н/о н/о +19.3 +19.1 99 +23 +23 комфорт 1025.4 1023.1
17 19.04 З 3 н/о н/о +18.8 +18.8 100 +21 +21 комфорт 1025.0 1022.7
19 19.04 ЮЗ 3 н/о н/о +19.1 +19.1 100 +21 +21 комфорт 1025.2 1022.9
20 19.04 ЮЗ 3 н/о {туман} н/о +19.1 +19.1 100 +21 +21 комфорт 1025.6 1023.3
22 19.04 ЮЗ 2 н/о н/о +19.7 +19.2 97 +23 +23 комфорт 1026.6 1024.3
23 19.04 ЮЗ 2 н/о {туман} н/о +20.9 +19.6 92 +26 +26 душно 1026.9 1024.6
01 20.04 Ю 4 н/о н/о +23.9 +20.8 83 +30 +30 очень
душно
1026.3 1024.0
02 20.04 Ю 4 н/о в посл. час дождь {туман} н/о +23.8 +20.7 83 +30 +30 очень
душно
1025.6 1023.3 +18.6
04 20.04 Ю 5 н/о н/о +24.3 +20.8 81 +30 +30 очень
душно
1024.1 1021.8
05 20.04 ЮВ 4 н/о {туман} н/о +24.1 +20.0 78 +30 +30 очень
душно
1023.8 1021.5
07 20.04 В 4 н/о н/о +22.5 +20.4 88 +29 +29 очень
душно
1023.6 1021.3
08 20.04 В 5 н/о н/о +22.1 +20.4 90 +28 +28 душно 1023.8 1021.5
10 20.04 СВ 5 н/о н/о +21.5 +20.5 94 +27 +27 душно 1024.4 1022.1
11 20.04 СВ 6 н/о н/о +21.9 +20.7 93 +28 +28 душно 1024.5 1022.2
13 20.04 СВ 6 н/о н/о +21.8 +20.4 92 +28 +28 душно 1024.3 1022.0
14 20.04 С 5 н/о н/о +21.4 +20.0 92 +27 +27 душно 1023.9 1021.6 +25.0
16 20.04 С 3 н/о н/о +20.6 +19.8 95 +25 +25 комфорт 1023.3 1021.0
17 20.04 С 4 н/о н/о +20.4 +19.9 97 +25 +25 комфорт 1022.5 1020.2
19 20.04 СЗ 3 н/о н/о +19.8 +18.8 94 +23 +23 комфорт 1023.2 1020.9
20 20.04 СЗ 2 н/о н/о +19.3 +18.6 96 +22 +22 комфорт 1023.7 1021.4
22 20.04 СЗ 2 н/о н/о +21.6 +19.3 87 +27 +27 душно 1024.4 1022.1
23 20.04 С 4 н/о н/о +24.3 +20.2 78 +30 +30 очень
душно
1024.6 1022.3
01 21.04 СВ 6 н/о н/о +27.1 +20.4 67 +34 +34 очень
душно
1023.9 1021.6
02 21.04 СВ 6 н/о {туман} н/о +27.1 +20.4 67 +34 +34 очень
душно
1023.5 1021.2 +19.2
04 21.04 СВ 6 н/о н/о +26.9 +20.7 69 +34 +34 очень
душно
1021.7 1019.4
05 21.04 СВ 6 н/о {туман} н/о +24.1 +19.0 73 +29 +29 душно 1021.7 1019.4
07 21.04 СВ 8 н/о н/о +22.4 +19.9 86 +29 +29 очень
душно
1021.6 1019.3
08 21.04 СВ 7 н/о н/о +21.9 +20.0 89 +28 +28 душно 1022.0 1019.7
10 21.04 СВ 9 н/о н/о +22.3 +20.0 87 +28 +28 душно 1021.8 1019.5
11 21.04 СВ 10 н/о н/о +22.3 +20.0 87 +28 +28 душно 1021.8 1019.5
13 21.04 С 7 н/о н/о +21.5 +19.1 86 +26 +26 душно 1021.5 1019.2
14 21.04 С 10 н/о н/о +21.6 +18.4 82 +26 +26 душно 1021.2 1018.9 +28.2
16 21.04 С 6 н/о н/о +21.1 +17.9 82 +25 +25 комфорт 1021.2 1018.9
17 21.04 С 6 н/о н/о +21.1 +17.7 81 +25 +25 комфорт 1021.0 1018.7
19 21.04 СЗ 2 н/о н/о +19.7 +16.5 82 +23 +23 комфорт 1020.9 1018.6
20 21.04 С 2 н/о н/о +18.9 +16.7 87 +21 +21 комфорт 1021.1 1018.8
22 21.04 С 5 н/о н/о +20.6 +17.0 80 +24 +24 комфорт 1022.6 1020.3
23 21.04 С 4 н/о н/о +22.3 +17.0 72 +27 +27 душно 1023.1 1020.8
01 22.04 СВ 7 н/о н/о +23.4 +17.4 69 +29 +29 душно 1022.5 1020.2
02 22.04 СВ 7 н/о н/о +24.6 +17.6 65 +29 +29 душно 1021.9 1019.6 +19.0
04 22.04 СВ 6 н/о н/о +25.7 +19.6 69 +31 +31 очень
душно
1021.3 1019.0
05 22.04 СВ 8 н/о н/о +24.6 +19.7 74 +30 +30 очень
душно
1021.2 1018.9
07 22.04 СВ 8 н/о н/о +22.0 +19.5 86 +28 +28 душно 1021.7 1019.4
08 22.04 СВ 8 н/о н/о +22.0 +20.1 89 +28 +28 душно 1022.2 1019.9
10 22.04 СВ 8 н/о н/о +22.2 +20.1 88 +28 +28 душно 1023.5 1021.2
11 22.04 СВ 8 н/о н/о +22.0 +19.7 87 +28 +28 душно 1024.2 1021.9
13 22.04 СВ 7 н/о н/о +22.0 +19.9 88 +28 +28 душно 1024.8 1022.5
14 22.04 С 7 н/о н/о +21.4 +19.3 88 +26 +26 душно 1025.0 1022.7 +27.2
16 22.04 СВ 6 н/о н/о +21.6 +19.2 86 +27 +27 душно 1024.6 1022.3
17 22.04 С 3 н/о н/о +20.8 +18.2 85 +25 +25 комфорт 1024.8 1022.5
19 22.04 СЗ 2 н/о н/о +19.4 +17.5 89 +22 +22 комфорт 1025.0 1022.7
20 22.04 С 2 н/о н/о +19.3 +17.8 91 +22 +22 комфорт 1025.5 1023.2
22 22.04 З 1 н/о н/о +20.8 +18.4 86 +26 +26 душно 1026.9 1024.6
23 22.04 Ю 1 н/о н/о +22.6 +19.2 81 +29 +29 очень
душно
1026.9 1024.6

 

Местоположение метеостанции Нора Хед (Новый Южный Уэльс, Австралия): широта -33.27 долгота 151.57 высота над уровнем моря 20 м.

В архиве по умолчанию представлена погода в Нора Хед за последнюю неделю. Архивные данные за месяц целиком и за предыдущие месяцы, начиная с января 2011 года, Вы можете получить, выбрав интересующий диапазон дат из раскрывающегося списка и нажав кнопку "Ввод!".


*Определитесь, кто Вы:
робот инопланетянин человек

Внимание! Время в таблицах - всемирное. Для получения местного времени необходимо прибавить поправку, которая равна 10 ч.

Смотрите также архив погоды в соседних городах и на ближайших метеорологических станциях:

Погода в Куранбонге (Новый Южный Уэльс, Австралия) (23 км)
Погода в Госфорде (Новый Южный Уэльс, Австралия) (27 км)
Погода на Мангров Маунтин (Новый Южный Уэльс, Австралия) (33 км)
Погода в Ньюкасле (Новый Южный Уэльс, Австралия) (44 км)
Погода в Террей Хилс (Новый Южный Уэльс, Австралия) (56 км)
Погода в Уильямтауне (Новый Южный Уэльс, Австралия) (58 км)
Погода в Сесноке (Новый Южный Уэльс, Австралия) (59 км)
Погода в Патерсоне (Новый Южный Уэльс, Австралия) (71 км)
Погода в Сидней Олимпик Парке (Новый Южный Уэльс, Австралия) (78 км)
Погода в Кентербери (Новый Южный Уэльс, Австралия) (82 км)

Пояснения к столбцам:

Ветер - указаны скорость ветра в м/с - средняя за 10 мин, порывы в срок и между сроками (в фигурных скобках) и направление, откуда дует ветер: С - северный, СВ - северо-восточный, В - восточный, ЮВ - юго-восточный, Ю - южный, ЮЗ - юго-западный, З - западный, СЗ - северо-западный.
Видимость - горизонтальная дальность видимости в метрах или километрах. При видимости от 1 до 10 км при отсутствии осадков обычно наблюдается дымка, при ухудшении видимости до 1 км и менее - туман. В сухую погоду видимость может ухудшаться дымом, пылью или мглою.
Явления - указаны атмосферные явления, наблюдавшиеся в срок или в последний час перед сроком; фигурными скобками обозначены явления, наблюдавшиеся между сроками (за 1-3 часа до срока); квадратными скобками обозначены град или гололедные отложения с указанием их диаметра в мм.
Облачность - указаны через наклонную черту общая и нижняя облачность в баллах и высота нижней границы облаков в метрах; квадратными скобками обозначены формы облаков: Ci - перистые, Cs - перисто-слоистые, Cc - перисто-кучевые, Ac - высококучевые, As - высокослоистые, Sc - слоисто-кучевые, Ns - слоисто-дождевые, Cu - кучевые, Cb - кучево-дождевые. Подробнее классификацию облаков см. в Атласе облаков (PDF).
T - Температура воздуха - температура, измеренная на высоте 2 м над землей.
Td - Температура точки росы - температура, при понижении до которой содержащийся в воздухе водяной пар достигнет насыщения.
f - Относительная влажность воздуха - влажноcть воздуха, измеренная на высоте 2 м над землей.
Te - Эффективная температура - температура, которую ощущает одетый по сезону человек в тени. Характеристика душности погоды. При расчете учитывается влияние влажности воздуха и скорости ветра на теплоощущения человека.
Tes - Эффективная температура на солнце - температура, которую ощущает человек, с поправкой на солнечный нагрев. Характеристика знойности погоды. Зависит от высоты солнца над горизонтом, облачности и скорости ветра. Ночью, в пасмурную погоду, а также при ветре 12 м/с и более поправка равна нулю.
P - Атмосферное давление - приведенное к уровню моря атмосферное давление.
Po - Атмосферное давление - измеренное на уровне метеостанции атмосферное давление.
Tmin - Минимальная температура - минимум температуры воздуха на высоте 2 м над землей.
Tmax - Максимальная температура - максимум температуры воздуха на высоте 2 м над землей.
R - Количество осадков - Количество выпавших осадков за период времени, мм. При наведении курсора мыши на число - период времени, за который выпало указанное количество осадков.
R24 - Количество осадков - Количество выпавших осадков за 24 часа, мм.
S - Снежный покров - Высота снежного покрова, см. При наведении курсора мыши на число - состояние снежного покрова и степень покрытия местности в баллах.